QPF
0.00 0.00 0.00 0.00 0.00 0.00 0.00 0.00 0.00 0.00 0.00 0.00 0.00 0.00 0.00 0.00 0.00 0.00 0.00 0.00 0.00 0.00 0.00 0.00 0.01 0.06 0.09 0.04 0.02 0.00 0.00 0.00 0.00 0.00 0.00 0.00 0.00 0.00 0.00 0.00 0.00 0.00 0.00 0.00 0.00
0.00 0.00 0.00 0.00 0.00 0.00 0.00 0.00 0.00 0.00 0.00 0.00 0.00 0.00 0.00 0.00 0.00 0.00 0.00 0.00 0.00 0.00 0.00 0.03 0.11 0.12 0.13 0.09 0.02 0.01 0.00 0.00 0.00 0.00 0.00 0.00 0.00 0.00 0.00 0.00 0.00 0.00 0.00 0.00 0.00
0.00 0.00 0.00 0.00 0.00 0.00 0.00 0.00 0.00 0.00 0.00 0.00 0.00 0.00 0.00 0.00 0.00 0.00 0.01 0.00 0.00 0.00 0.02 0.15 0.24 0.21 0.04 0.03 0.01 0.00 0.00 0.00 0.00 0.00 0.00 0.00 0.00 0.00 0.00 0.00 0.00 0.00 0.00 0.00 0.00
0.00 0.00 0.00 0.00 0.00 0.00 0.00 0.00 0.00 0.00 0.00 0.00 0.00 0.00 0.00 0.00 0.00 0.00 0.00 0.00 0.00 0.00 0.03 0.07 0.09 0.03 0.00 0.02 0.01 0.00 0.00 0.00 0.00 0.00 0.00 0.00 0.00 0.00 0.00 0.00 0.00 0.00 0.00 0.00 0.00
0.00 0.00 0.00 0.00 0.00 0.00 0.00 0.00 0.00 0.00 0.00 0.00 0.00 0.00 0.00 0.00 0.00 0.00 0.00 0.00 0.00 0.00 0.01 0.01 0.04 0.02 0.02 0.03 0.01 0.01 0.00 0.00 0.00 0.00 0.00 0.00 0.00 0.00 0.00 0.00 0.00 0.00 0.00 0.00 0.00
0.00 0.00 0.00 0.00 0.00 0.00 0.00 0.00 0.00 0.00 0.00 0.00 0.00 0.00 0.00 0.00 0.00 0.00 0.00 0.00 0.00 0.01 0.01 0.00 0.05 0.10 0.02 0.01 0.01 0.00 0.00 0.00 0.00 0.00 0.00 0.00 0.00 0.00 0.00 0.00 0.00 0.00 0.00 0.00 0.00
0.00 0.00 0.00 0.00 0.00 0.00 0.00 0.00 0.00 0.00 0.00 0.00 0.00 0.00 0.00 0.00 0.00 0.00 0.00 0.00 0.00 0.00 0.00 0.01 0.04 0.03 0.00 0.01 0.00 0.00 0.00 0.00 0.00 0.00 0.00 0.00 0.00 0.00 0.00 0.00 0.00 0.00 0.00 0.00 0.00
0.00 0.00 0.00 0.00 0.00 0.00 0.00 0.00 0.00 0.00 0.00 0.00 0.00 0.00 0.00 0.00 0.00 0.00 0.00 0.00 0.00 0.00 0.00 0.00 0.01 0.01 0.00 0.01 0.01 0.00 0.00 0.00 0.00 0.00 0.00 0.00 0.00 0.00 0.00 0.00 0.00 0.00 0.00 0.00 0.00
0.00 0.00 0.00 0.00 0.00 0.00 0.00 0.00 0.00 0.00 0.00 0.00 0.00 0.00 0.00 0.00 0.00 0.00 0.00 0.00 0.00 0.00 0.00 0.00 0.00 0.01 0.02 0.01 0.01 0.01 0.01 0.00 0.00 0.00 0.00 0.00 0.00 0.00 0.00 0.00 0.00 0.00 0.00 0.00 0.00
0.00 0.00 0.00 0.00 0.00 0.00 0.00 0.00 0.00 0.00 0.00 0.00 0.00 0.00 0.00 0.00 0.00 0.00 0.00 0.00 0.00 0.00 0.00 0.00 0.00 0.00 0.01 0.00 0.00 0.00 0.01 0.02 0.01 0.05 0.00 0.00 0.00 0.00 0.00 0.00 0.00 0.00 0.00 0.00 0.00
0.00 0.00 0.00 0.00 0.00 0.00 0.00 0.00 0.00 0.00 0.00 0.00 0.00 0.00 0.00 0.00 0.00 0.00 0.00 0.00 0.00 0.00 0.00 0.00 0.00 0.00 0.00 0.00 0.00 0.00 0.01 0.02 0.01 0.04 0.02 0.00 0.00 0.00 0.00 0.00 0.00 0.00 0.00 0.00 0.00
0.00 0.00 0.00 0.00 0.00 0.00 0.00 0.00 0.00 0.00 0.00 0.00 0.00 0.00 0.00 0.00 0.00 0.00 0.00 0.00 0.00 0.00 0.00 0.00 0.00 0.00 0.00 0.00 0.00 0.00 0.01 0.01 0.00 0.02 0.08 0.01 0.00 0.00 0.00 0.00 0.00 0.00 0.00 0.00 0.00
0.00 0.00 0.00 0.00 0.00 0.00 0.00 0.00 0.00 0.00 0.00 0.00 0.00 0.00 0.00 0.00 0.00 0.00 0.00 0.00 0.00 0.00 0.00 0.00 0.00 0.00 0.00 0.00 0.00 0.00 0.00 0.00 0.00 0.05 0.05 0.03 0.00 0.00 0.00 0.00 0.00 0.00 0.00 0.00 0.00
0.00 0.00 0.00 0.00 0.00 0.00 0.00 0.00 0.00 0.00 0.00 0.00 0.00 0.00 0.00 0.00 0.00 0.00 0.00 0.00 0.00 0.00 0.00 0.00 0.00 0.00 0.00 0.00 0.00 0.00 0.00 0.00 0.01 0.09 0.03 0.01 0.00 0.00 0.00 0.00 0.00 0.00 0.00 0.00 0.00
0.00 0.00 0.00 0.00 0.00 0.00 0.00 0.00 0.00 0.00 0.00 0.00 0.00 0.00 0.00 0.00 0.00 0.00 0.00 0.00 0.00 0.00 0.00 0.00 0.00 0.00 0.00 0.00 0.00 0.00 0.00 0.00 0.00 0.04 0.03 0.02 0.00 0.00 0.00 0.00 0.00 0.00 0.00 0.00 0.00
0.00 0.00 0.00 0.00 0.00 0.00 0.00 0.00 0.00 0.00 0.00 0.00 0.00 0.00 0.00 0.00 0.00 0.00 0.00 0.00 0.00 0.00 0.00 0.00 0.00 0.00 0.00 0.00 0.00 0.00 0.00 0.00 0.01 0.02 0.02 0.00 0.00 0.00 0.00 0.00 0.00 0.00 0.00 0.00 0.00
0.00 0.00 0.00 0.00 0.00 0.00 0.00 0.00 0.00 0.00 0.00 0.00 0.00 0.00 0.00 0.00 0.00 0.00 0.00 0.00 0.00 0.00 0.00 0.00 0.00 0.00 0.00 0.00 0.00 0.00 0.00 0.00 0.00 0.02 0.00 0.00 0.00 0.00 0.00 0.00 0.00 0.00 0.00 0.00 0.00
0.00 0.00 0.00 0.00 0.00 0.00 0.00 0.00 0.00 0.00 0.00 0.00 0.00 0.00 0.00 0.00 0.00 0.00 0.00 0.00 0.00 0.00 0.00 0.00 0.00 0.00 0.00 0.00 0.00 0.00 0.00 0.00 0.00 0.00 0.00 0.00 0.00 0.00 0.00 0.00 0.00 0.00 0.00 0.00 0.00
0.00 0.00 0.00 0.00 0.00 0.00 0.00 0.00 0.00 0.00 0.00 0.00 0.00 0.00 0.00 0.00 0.00 0.00 0.00 0.00 0.00 0.00 0.00 0.00 0.00 0.00 0.00 0.00 0.00 0.00 0.00 0.00 0.00 0.00 0.00 0.00 0.01 0.00 0.00 0.00 0.00 0.00 0.00 0.00 0.00
0.00 0.00 0.00 0.00 0.00 0.00 0.00 0.00 0.00 0.00 0.00 0.00 0.00 0.00 0.00 0.00 0.00 0.00 0.00 0.00 0.00 0.00 0.00 0.00 0.00 0.00 0.00 0.00 0.00 0.00 0.00 0.00 0.00 0.00 0.00 0.00 0.03 0.00 0.00 0.00 0.00 0.01 0.01 0.00 0.00
0.00 0.00 0.00 0.00 0.00 0.00 0.00 0.00 0.00 0.00 0.00 0.00 0.00 0.00 0.00 0.00 0.00 0.00 0.00 0.00 0.00 0.00 0.00 0.00 0.00 0.00 0.00 0.00 0.00 0.00 0.00 0.00 0.00 0.00 0.00 0.00 0.03 0.01 0.01 0.01 0.01 0.05 0.05 0.05 0.08
0.00 0.00 0.00 0.00 0.00 0.00 0.00 0.00 0.00 0.00 0.00 0.00 0.00 0.00 0.00 0.00 0.00 0.00 0.00 0.00 0.00 0.00 0.00 0.00 0.00 0.00 0.00 0.00 0.00 0.00 0.00 0.00 0.00 0.00 0.00 0.00 0.05 0.11 0.16 0.21 0.21 0.21 0.21 0.12 0.14
0.00 0.00 0.00 0.00 0.00 0.00 0.00 0.00 0.00 0.00 0.00 0.00 0.00 0.00 0.00 0.00 0.00 0.00 0.00 0.00 0.00 0.00 0.00 0.00 0.00 0.00 0.00 0.00 0.00 0.00 0.00 0.00 0.00 0.00 0.00 0.00 0.03 0.11 0.11 0.09 0.18 0.16 0.11 0.10 0.06
0.00 0.00 0.00 0.00 0.00 0.00 0.00 0.00 0.00 0.00 0.00 0.00 0.00 0.00 0.00 0.00 0.00 0.00 0.00 0.00 0.00 0.00 0.00 0.00 0.00 0.00 0.00 0.00 0.00 0.00 0.00 0.00 0.00 0.00 0.00 0.00 0.02 0.04 0.02 0.02 0.02 0.02 0.03 0.04 0.03
0.00 0.00 0.00 0.00 0.00 0.00 0.00 0.00 0.00 0.00 0.00 0.00 0.00 0.00 0.00 0.00 0.00 0.00 0.00 0.00 0.00 0.00 0.00 0.00 0.00 0.00 0.00 0.00 0.00 0.00 0.00 0.00 0.00 0.00 0.00 0.00 0.00 0.01 0.03 0.00 0.00 0.00 0.00 0.00 0.01
0.00 0.00 0.00 0.00 0.00 0.00 0.00 0.00 0.00 0.00 0.00 0.00 0.00 0.00 0.00 0.00 0.00 0.00 0.00 0.00 0.00 0.00 0.00 0.00 0.00 0.00 0.00 0.00 0.00 0.00 0.00 0.00 0.00 0.00 0.00 0.00 0.01 0.04 0.01 0.00 0.00 0.00 0.00 0.00 0.00
0.00 0.00 0.00 0.00 0.00 0.00 0.00 0.00 0.00 0.00 0.00 0.00 0.00 0.00 0.00 0.00 0.00 0.00 0.00 0.00 0.00 0.00 0.00 0.00 0.00 0.00 0.00 0.00 0.00 0.00 0.00 0.00 0.00 0.00 0.00 0.00 0.00 0.00 0.00 0.00 0.00 0.00 0.00 0.00 0.00
MSLP
1016.80 1016.32 1015.91 1015.53 1015.22 1014.73 1014.32 1013.86 1013.55 1013.42 1013.27 1013.19 1013.11 1012.62 1012.25 1011.75 1010.94 1010.94 1010.09 1008.15 1008.13 1008.56 1009.00 1008.96 1009.86 1010.06 1010.98 1011.51 1012.03 1011.64 1010.90 1009.33 1008.17 1007.81 1007.97 1008.23 1009.16 1010.78 1011.14 1011.89 1012.86 1012.93 1013.85 1014.65 1015.21
1016.75 1016.25 1015.79 1015.45 1015.16 1014.70 1014.20 1013.71 1013.47 1013.37 1013.21 1012.98 1012.94 1012.49 1012.06 1011.58 1010.96 1009.83 1007.59 1007.60 1007.75 1008.78 1009.71 1010.29 1010.81 1010.70 1010.72 1011.92 1010.89 1010.65 1009.80 1007.77 1006.72 1006.94 1007.54 1008.45 1009.17 1010.61 1011.97 1012.80 1013.25 1013.73 1014.61 1014.99 1015.37
1016.64 1016.13 1015.68 1015.35 1015.01 1014.66 1014.13 1013.63 1013.27 1013.32 1013.17 1012.81 1012.66 1012.45 1011.79 1011.48 1010.52 1007.94 1006.93 1007.42 1008.25 1009.26 1009.82 1010.40 1011.47 1011.59 1011.99 1011.29 1010.15 1009.67 1008.50 1006.53 1006.71 1006.93 1007.37 1008.48 1009.74 1010.77 1011.88 1012.99 1012.70 1013.46 1014.57 1015.19 1015.51
1016.49 1015.99 1015.58 1015.22 1014.81 1014.46 1014.03 1013.55 1013.11 1013.08 1013.02 1012.68 1012.49 1012.24 1011.74 1011.11 1009.46 1007.18 1007.11 1007.59 1008.30 1008.59 1009.46 1010.23 1010.89 1011.80 1011.88 1011.06 1009.33 1009.02 1007.31 1006.62 1006.40 1006.61 1007.32 1008.15 1009.46 1010.67 1010.98 1012.24 1012.98 1013.69 1014.26 1015.01 1015.59
1016.32 1015.86 1015.47 1015.11 1014.64 1014.25 1013.82 1013.41 1013.00 1012.77 1012.76 1012.49 1012.39 1012.07 1011.59 1010.42 1008.12 1006.91 1007.55 1007.88 1008.23 1007.81 1008.23 1008.45 1009.58 1011.14 1011.20 1011.45 1009.69 1009.32 1007.71 1006.61 1006.29 1006.95 1007.56 1008.26 1009.75 1010.75 1011.88 1012.54 1013.28 1013.86 1014.53 1014.88 1015.27
1016.21 1015.72 1015.30 1014.96 1014.43 1013.99 1013.55 1013.14 1012.76 1012.46 1012.44 1012.21 1012.16 1012.03 1011.35 1009.19 1006.35 1006.64 1007.37 1008.05 1008.26 1008.38 1008.58 1007.39 1009.21 1011.25 1011.57 1010.89 1010.23 1009.87 1008.40 1006.89 1006.96 1007.61 1008.08 1009.12 1010.64 1011.11 1012.63 1012.73 1013.34 1013.62 1014.04 1014.53 1014.82
1016.12 1015.62 1015.14 1014.75 1014.23 1013.62 1013.18 1012.83 1012.42 1012.15 1012.08 1011.96 1011.94 1011.71 1010.65 1007.47 1006.04 1006.72 1007.28 1007.56 1007.75 1007.94 1008.14 1008.30 1009.29 1010.67 1011.06 1011.47 1010.59 1009.90 1009.13 1007.99 1007.89 1008.08 1009.15 1009.63 1011.33 1011.64 1012.29 1012.72 1013.09 1013.45 1013.72 1014.08 1014.64
1016.02 1015.44 1014.90 1014.51 1013.98 1013.30 1012.77 1012.38 1011.97 1011.71 1011.59 1011.66 1011.76 1011.36 1009.12 1005.94 1006.15 1006.88 1007.53 1007.49 1007.44 1007.49 1007.70 1008.79 1009.44 1010.48 1011.01 1010.62 1011.27 1010.99 1010.52 1009.82 1009.07 1008.69 1009.49 1009.50 1011.84 1012.20 1012.34 1012.69 1012.95 1013.12 1013.43 1013.88 1014.25
1015.84 1015.22 1014.67 1014.22 1013.70 1013.01 1012.26 1011.81 1011.29 1011.20 1011.28 1011.37 1011.51 1010.78 1008.22 1006.18 1006.34 1006.25 1006.44 1006.78 1007.23 1007.45 1007.84 1008.46 1009.83 1010.47 1010.92 1011.05 1012.26 1012.64 1012.11 1011.09 1010.19 1009.73 1009.66 1010.47 1012.02 1012.31 1012.49 1012.71 1012.91 1012.99 1013.29 1013.41 1014.00
1015.55 1015.07 1014.44 1013.86 1013.39 1012.77 1011.79 1011.02 1010.83 1010.95 1011.22 1011.08 1010.48 1010.08 1007.64 1006.11 1005.68 1005.89 1005.92 1006.22 1006.94 1007.20 1007.58 1008.72 1009.84 1010.79 1011.03 1010.96 1011.25 1011.80 1012.27 1012.04 1011.92 1011.74 1010.82 1011.21 1011.86 1012.32 1012.25 1012.40 1012.47 1012.51 1012.86 1013.33 1013.83
1015.29 1014.76 1014.15 1013.50 1013.15 1012.76 1011.70 1010.50 1010.94 1010.69 1010.26 1009.11 1008.45 1007.61 1005.77 1005.32 1005.14 1005.50 1005.50 1006.04 1006.64 1007.30 1007.75 1007.91 1009.29 1010.19 1009.87 1009.83 1009.40 1010.81 1011.99 1012.24 1012.76 1012.93 1013.00 1012.34 1011.76 1012.00 1011.95 1011.91 1012.15 1012.50 1012.46 1012.98 1013.35
1015.20 1014.30 1013.72 1013.11 1012.69 1012.55 1012.63 1011.03 1008.85 1008.17 1008.30 1007.43 1007.07 1006.58 1005.51 1005.25 1005.36 1005.01 1004.94 1006.01 1006.26 1006.89 1007.27 1007.92 1007.96 1008.16 1008.46 1009.71 1010.22 1010.46 1011.42 1012.70 1013.21 1013.29 1013.37 1013.31 1012.90 1012.46 1012.05 1011.64 1011.45 1011.76 1012.35 1012.54 1013.30
1015.05 1014.20 1013.35 1012.57 1011.99 1011.99 1011.34 1009.18 1006.98 1007.56 1007.90 1006.37 1005.70 1005.36 1004.78 1004.45 1004.58 1004.36 1004.89 1005.27 1005.89 1006.55 1007.03 1007.53 1006.58 1006.98 1007.65 1009.06 1009.91 1010.59 1011.09 1012.21 1012.87 1013.85 1014.13 1014.38 1013.85 1012.93 1011.83 1011.19 1010.91 1011.02 1011.31 1011.85 1012.16
1014.62 1013.92 1013.15 1012.14 1011.72 1011.40 1009.86 1007.36 1006.99 1007.34 1007.95 1006.26 1005.04 1003.87 1003.80 1003.85 1003.98 1003.66 1004.09 1004.90 1005.58 1005.83 1006.51 1006.54 1005.59 1005.95 1007.23 1008.17 1009.27 1009.87 1010.61 1011.24 1012.20 1013.09 1014.68 1014.70 1014.28 1012.65 1011.75 1011.50 1010.92 1010.59 1010.82 1011.20 1011.77
1014.27 1013.67 1013.14 1012.99 1012.36 1010.92 1008.29 1007.45 1007.11 1007.12 1007.47 1004.90 1004.17 1002.69 1003.19 1003.81 1003.68 1003.52 1003.61 1004.47 1005.14 1005.39 1006.07 1005.46 1005.58 1005.77 1005.98 1006.11 1008.00 1007.58 1008.12 1009.62 1011.33 1012.68 1014.00 1014.98 1014.82 1011.63 1011.30 1011.36 1010.52 1009.81 1009.90 1010.61 1011.05
1013.55 1013.27 1012.92 1012.64 1012.28 1009.21 1008.16 1007.48 1007.29 1008.41 1006.49 1004.45 1003.28 1003.21 1003.81 1003.99 1003.75 1003.66 1003.86 1004.21 1004.61 1005.46 1005.81 1005.41 1004.85 1004.91 1004.52 1004.40 1005.86 1005.43 1007.78 1010.19 1011.90 1013.38 1014.28 1013.40 1014.16 1011.55 1010.73 1009.48 1009.99 1009.83 1009.56 1010.17 1010.73
1012.66 1012.49 1012.70 1011.84 1009.96 1008.38 1008.06 1008.36 1009.16 1008.46 1005.72 1004.63 1004.02 1003.84 1004.13 1004.50 1004.32 1004.20 1004.25 1004.72 1005.42 1006.17 1006.66 1005.98 1004.96 1004.49 1004.19 1004.18 1004.29 1005.16 1007.49 1010.20 1012.68 1013.82 1013.15 1012.18 1013.57 1010.34 1008.77 1008.48 1009.09 1009.56 1009.26 1009.78 1010.43
1011.80 1010.95 1010.80 1009.98 1008.56 1008.86 1009.00 1009.56 1009.34 1007.58 1006.05 1004.42 1004.01 1004.45 1004.72 1004.72 1004.74 1004.46 1004.96 1005.55 1005.40 1006.01 1006.95 1006.87 1005.91 1004.61 1004.14 1004.46 1004.78 1005.43 1006.98 1008.93 1010.67 1012.00 1012.36 1012.38 1011.22 1009.00 1008.14 1008.35 1009.20 1009.61 1010.50 1010.52 1011.23
1011.15 1010.45 1010.42 1008.21 1008.41 1009.19 1010.08 1010.34 1009.09 1007.44 1006.05 1005.04 1004.44 1005.14 1005.57 1005.45 1005.48 1005.41 1005.07 1005.57 1005.19 1005.59 1006.58 1006.71 1006.03 1004.38 1004.07 1004.06 1004.54 1005.15 1006.49 1007.23 1009.13 1010.63 1011.48 1011.15 1010.32 1009.14 1009.05 1009.58 1010.49 1011.69 1012.35 1012.76 1012.99
1012.13 1011.02 1009.30 1007.05 1008.00 1009.09 1010.29 1010.34 1008.59 1006.77 1005.71 1005.09 1005.42 1005.57 1005.99 1006.16 1006.14 1006.16 1005.72 1005.09 1004.81 1004.66 1004.81 1005.93 1006.21 1004.87 1004.04 1003.55 1003.61 1004.06 1005.32 1007.28 1009.28 1010.70 1011.41 1011.27 1011.19 1010.61 1010.72 1011.52 1012.10 1013.17 1013.97 1014.59 1014.62
1012.08 1010.99 1007.67 1006.97 1008.04 1009.82 1010.68 1009.76 1007.93 1006.13 1005.22 1005.27 1005.59 1005.81 1006.27 1006.59 1006.66 1006.61 1006.37 1005.35 1005.22 1004.87 1005.12 1005.51 1006.07 1005.45 1004.71 1004.49 1004.67 1004.93 1005.59 1007.11 1008.63 1010.07 1011.22 1012.17 1012.43 1012.13 1012.69 1013.61 1014.73 1015.62 1016.15 1016.39 1016.66
1013.11 1011.37 1007.83 1007.36 1009.37 1010.45 1010.43 1008.81 1007.30 1006.25 1005.41 1005.24 1005.41 1005.91 1006.36 1006.64 1006.90 1006.79 1006.52 1005.90 1005.22 1005.13 1005.23 1005.15 1005.90 1006.34 1005.57 1004.87 1004.55 1004.91 1005.75 1006.84 1008.93 1010.04 1010.86 1011.74 1013.52 1013.70 1013.38 1014.50 1015.39 1016.68 1017.68 1017.82 1017.67
1014.76 1012.23 1008.20 1008.22 1009.95 1010.65 1009.66 1008.44 1006.86 1006.18 1005.68 1005.67 1005.93 1006.23 1006.66 1006.99 1007.33 1006.97 1006.46 1005.69 1005.37 1005.28 1005.45 1005.42 1006.47 1007.05 1006.44 1005.91 1005.03 1005.59 1005.59 1006.25 1007.73 1009.00 1010.58 1012.12 1014.12 1014.39 1014.72 1014.75 1015.45 1015.80 1017.05 1018.81 1019.01
1014.96 1013.23 1011.04 1010.04 1010.64 1010.72 1010.09 1008.70 1007.12 1005.73 1005.58 1005.67 1006.07 1006.33 1006.81 1007.12 1007.22 1007.21 1006.75 1005.97 1005.63 1005.58 1005.40 1005.91 1007.40 1008.08 1007.64 1007.10 1006.83 1007.23 1006.92 1006.67 1007.60 1009.30 1010.56 1011.75 1013.48 1014.66 1015.33 1015.12 1015.97 1016.74 1018.04 1018.93 1019.42
1014.96 1014.60 1013.62 1012.91 1011.68 1011.50 1010.37 1008.97 1007.79 1007.11 1006.60 1006.43 1006.74 1007.00 1007.35 1007.67 1007.68 1007.52 1006.86 1006.34 1006.20 1006.28 1006.13 1006.85 1008.04 1008.31 1008.48 1007.85 1007.47 1008.22 1008.04 1007.68 1007.95 1008.58 1009.70 1011.74 1012.47 1013.94 1015.25 1015.68 1016.60 1017.48 1018.50 1019.22 1019.75
1015.67 1015.49 1014.52 1013.78 1013.01 1011.89 1010.67 1009.73 1008.26 1007.44 1007.07 1007.23 1007.47 1007.38 1007.42 1007.84 1008.00 1007.96 1007.70 1007.15 1007.24 1007.25 1007.62 1008.15 1008.93 1009.03 1009.42 1009.06 1008.79 1009.25 1008.93 1008.54 1008.70 1009.70 1010.74 1012.15 1013.67 1014.43 1015.11 1015.89 1016.69 1017.32 1018.18 1018.74 1018.95
1016.61 1015.77 1015.44 1014.63 1013.76 1012.86 1011.95 1010.63 1008.57 1007.75 1007.42 1007.07 1007.18 1007.46 1007.39 1007.23 1007.19 1007.29 1007.57 1007.51 1007.54 1008.04 1008.84 1009.39 1009.90 1010.76 1010.96 1010.81 1009.76 1010.72 1011.23 1010.31 1009.89 1010.66 1011.51 1012.42 1013.05 1014.61 1015.97 1016.29 1016.60 1017.14 1017.65 1017.79 1018.25
Thickness
5759 5765 5770 5774 5778 5782 5786 5790 5793 5796 5797 5798 5799 5804 5807 5810 5816 5815 5813 5833 5835 5835 5832 5832 5821 5816 5810 5799 5798 5801 5784 5781 5795 5799 5804 5820 5806 5810 5817 5802 5802 5807 5797 5797 5800
5759 5766 5771 5775 5779 5784 5787 5791 5794 5797 5799 5801 5802 5805 5809 5812 5814 5815 5842 5843 5840 5833 5822 5811 5797 5803 5796 5789 5804 5798 5788 5803 5828 5823 5814 5816 5813 5804 5796 5791 5792 5794 5798 5799 5798
5760 5766 5772 5776 5780 5785 5788 5792 5797 5798 5800 5805 5806 5807 5811 5812 5812 5824 5849 5843 5836 5832 5829 5813 5795 5797 5776 5797 5808 5808 5799 5832 5829 5829 5830 5817 5809 5811 5794 5778 5796 5789 5790 5793 5793
5761 5768 5773 5777 5782 5786 5790 5794 5799 5802 5803 5807 5808 5809 5812 5816 5794 5839 5845 5843 5838 5842 5829 5818 5811 5793 5788 5792 5818 5803 5831 5835 5834 5839 5830 5818 5818 5805 5808 5799 5807 5801 5799 5794 5789
5762 5769 5774 5778 5783 5788 5792 5796 5801 5805 5806 5809 5810 5811 5815 5812 5819 5848 5843 5843 5841 5847 5836 5830 5815 5797 5797 5793 5812 5799 5822 5840 5841 5834 5831 5832 5813 5804 5798 5806 5806 5804 5797 5794 5792
5763 5769 5775 5779 5785 5790 5795 5799 5803 5808 5809 5812 5813 5812 5814 5805 5859 5857 5849 5845 5840 5837 5832 5845 5820 5808 5792 5798 5801 5808 5817 5836 5834 5829 5829 5813 5805 5807 5797 5808 5801 5801 5799 5799 5798
5764 5770 5776 5781 5787 5793 5798 5802 5807 5810 5812 5814 5815 5816 5812 5823 5864 5859 5853 5847 5848 5842 5835 5843 5831 5813 5812 5797 5810 5813 5806 5824 5824 5824 5813 5820 5791 5792 5805 5807 5800 5799 5801 5802 5800
5764 5771 5778 5783 5789 5796 5802 5806 5811 5815 5816 5816 5816 5817 5814 5864 5864 5857 5851 5848 5854 5854 5848 5844 5835 5818 5810 5817 5801 5795 5795 5779 5815 5822 5818 5814 5765 5794 5807 5802 5798 5800 5801 5802 5802
5766 5773 5780 5785 5791 5799 5806 5811 5817 5819 5819 5819 5817 5816 5815 5862 5849 5860 5862 5846 5850 5853 5851 5847 5829 5810 5812 5791 5768 5772 5761 5774 5795 5820 5817 5802 5773 5796 5805 5799 5795 5800 5803 5805 5801
5768 5774 5781 5788 5794 5801 5811 5818 5820 5821 5820 5821 5825 5812 5831 5834 5854 5859 5865 5859 5842 5842 5835 5826 5810 5791 5791 5786 5762 5771 5765 5772 5772 5786 5805 5793 5787 5797 5804 5800 5797 5800 5804 5801 5797
5769 5776 5783 5791 5795 5800 5811 5821 5812 5810 5819 5821 5826 5828 5847 5857 5865 5853 5861 5851 5846 5833 5804 5824 5793 5782 5796 5807 5820 5798 5784 5779 5780 5788 5775 5778 5797 5798 5806 5806 5801 5796 5801 5800 5801
5770 5779 5786 5793 5799 5801 5801 5812 5824 5833 5810 5836 5838 5840 5854 5859 5835 5848 5865 5832 5829 5811 5821 5809 5796 5818 5823 5809 5807 5802 5786 5773 5773 5787 5781 5778 5786 5793 5801 5811 5814 5807 5800 5803 5799
5771 5780 5789 5797 5804 5805 5809 5823 5849 5843 5807 5828 5843 5840 5847 5857 5840 5842 5853 5842 5825 5811 5810 5792 5818 5833 5819 5804 5797 5789 5781 5774 5771 5771 5775 5766 5768 5775 5798 5812 5823 5823 5818 5815 5813
5773 5781 5788 5798 5806 5807 5813 5841 5846 5842 5773 5803 5829 5845 5856 5856 5836 5865 5863 5844 5828 5814 5814 5810 5839 5832 5811 5801 5798 5772 5798 5793 5777 5770 5744 5772 5741 5771 5790 5792 5810 5823 5820 5817 5817
5774 5780 5786 5789 5794 5804 5828 5838 5843 5830 5744 5825 5827 5872 5858 5837 5843 5846 5867 5845 5817 5820 5820 5810 5818 5814 5809 5813 5807 5803 5820 5804 5791 5772 5764 5758 5744 5782 5790 5783 5800 5818 5827 5822 5822
5778 5781 5784 5789 5790 5814 5825 5832 5826 5761 5747 5811 5834 5828 5824 5831 5834 5844 5842 5852 5844 5819 5821 5819 5840 5834 5833 5849 5826 5850 5814 5796 5780 5755 5739 5765 5744 5775 5782 5805 5805 5814 5828 5825 5821
5783 5785 5784 5790 5800 5819 5824 5809 5753 5736 5805 5802 5807 5817 5811 5808 5815 5823 5821 5811 5796 5784 5778 5803 5815 5830 5843 5829 5842 5835 5795 5747 5730 5722 5736 5773 5753 5788 5816 5821 5817 5814 5828 5828 5824
5787 5795 5796 5802 5814 5813 5806 5773 5747 5772 5785 5814 5811 5805 5796 5806 5805 5813 5800 5790 5811 5798 5772 5764 5764 5818 5837 5819 5808 5810 5793 5750 5740 5735 5750 5765 5756 5792 5824 5831 5824 5821 5812 5820 5813
5790 5794 5794 5811 5811 5805 5778 5738 5746 5772 5794 5796 5800 5785 5785 5796 5799 5795 5791 5786 5804 5801 5772 5757 5770 5823 5829 5831 5820 5806 5786 5803 5772 5768 5746 5761 5783 5808 5817 5810 5806 5792 5791 5791 5792
5775 5782 5790 5815 5809 5790 5756 5741 5764 5790 5796 5798 5770 5782 5767 5775 5776 5772 5783 5803 5801 5812 5811 5790 5764 5808 5822 5832 5831 5816 5819 5779 5754 5746 5745 5752 5758 5762 5788 5782 5785 5777 5774 5773 5775
5772 5767 5798 5811 5800 5764 5735 5742 5771 5792 5800 5784 5774 5772 5772 5769 5773 5767 5773 5795 5802 5805 5801 5792 5774 5787 5815 5800 5793 5793 5791 5785 5773 5752 5731 5724 5745 5774 5767 5764 5755 5751 5752 5753 5754
5753 5748 5795 5801 5750 5736 5737 5760 5779 5782 5791 5788 5789 5780 5773 5770 5765 5769 5768 5780 5802 5801 5788 5799 5766 5757 5778 5809 5814 5804 5788 5777 5741 5751 5743 5735 5729 5759 5764 5755 5749 5741 5736 5734 5737
5730 5740 5787 5783 5727 5727 5745 5759 5774 5774 5776 5773 5768 5774 5771 5762 5749 5761 5768 5793 5797 5793 5787 5796 5758 5732 5752 5779 5796 5789 5795 5787 5763 5751 5744 5728 5724 5747 5749 5752 5749 5746 5736 5710 5722
5727 5726 5742 5749 5739 5740 5736 5744 5755 5779 5774 5773 5767 5768 5760 5750 5754 5750 5757 5782 5792 5791 5796 5786 5748 5737 5724 5751 5770 5758 5770 5781 5765 5736 5736 5731 5731 5734 5735 5740 5736 5730 5720 5707 5709
5722 5714 5722 5705 5723 5721 5735 5743 5743 5740 5758 5758 5751 5748 5743 5735 5737 5738 5756 5765 5778 5774 5781 5769 5748 5759 5753 5765 5761 5751 5750 5760 5755 5761 5751 5736 5742 5737 5731 5729 5723 5720 5711 5705 5701
5706 5701 5706 5705 5711 5718 5722 5724 5735 5740 5745 5737 5733 5742 5738 5730 5733 5725 5741 5751 5754 5761 5755 5749 5736 5745 5739 5748 5749 5735 5742 5749 5752 5748 5737 5731 5722 5731 5730 5724 5719 5716 5709 5703 5702
5698 5703 5696 5695 5702 5703 5704 5714 5734 5741 5743 5747 5740 5731 5731 5737 5747 5751 5747 5747 5755 5750 5736 5730 5721 5711 5712 5715 5735 5701 5709 5725 5735 5735 5732 5720 5725 5722 5711 5713 5711 5709 5707 5704 5702